Radiation Dose at Monitoring Post of Fukushima Daini Nuclear Power Station
Date,Time,MP-1(microSv/h),MP-2(microSv/h),MP-3(microSv/h),MP-4(microSv/h),MP-5(microSv/h),MP-6(microSv/h),MP-7(microSv/h),Wind Direction,Wind Velocity(m/s),Rain
2018/03/07,00:00,0.323,0.200,0.326,0.311,0.300,0.163,0.099,west-northwest,3.8,No
2018/03/07,00:10,0.323,0.200,0.327,0.311,0.301,0.164,0.099,north-northwest,1.8,No
2018/03/07,00:20,0.323,0.200,0.328,0.309,0.298,0.164,0.099,north,3.1,No
2018/03/07,00:30,0.323,0.200,0.326,0.309,0.299,0.163,0.099,north,3.7,No
2018/03/07,00:40,0.321,0.199,0.327,0.310,0.299,0.164,0.099,north,3.6,No
2018/03/07,00:50,0.323,0.200,0.326,0.310,0.300,0.164,0.099,north,4.3,No
2018/03/07,01:00,0.323,0.200,0.327,0.311,0.300,0.164,0.099,north,3.8,No
2018/03/07,01:10,0.323,0.199,0.326,0.310,0.301,0.165,0.098,north,4.1,No
2018/03/07,01:20,0.323,0.199,0.326,0.311,0.300,0.164,0.099,north,4.2,No
2018/03/07,01:30,0.322,0.200,0.327,0.310,0.301,0.164,0.098,north,4.9,No
2018/03/07,01:40,0.322,0.200,0.326,0.309,0.300,0.164,0.099,north,4.6,No
2018/03/07,01:50,0.324,0.199,0.327,0.311,0.301,0.163,0.099,north-northwest,3.6,No
2018/03/07,02:00,0.324,0.199,0.326,0.310,0.300,0.164,0.099,north,5.8,No
2018/03/07,02:10,0.323,0.201,0.326,0.310,0.299,0.163,0.098,north,6.1,No
2018/03/07,02:20,0.321,0.199,0.327,0.310,0.298,0.164,0.099,north,7.5,No
2018/03/07,02:30,0.322,0.199,0.328,0.309,0.299,0.163,0.099,north,8.4,No
2018/03/07,02:40,0.324,0.201,0.325,0.309,0.299,0.163,0.098,north,8.4,No
2018/03/07,02:50,0.322,0.199,0.326,0.309,0.299,0.165,0.099,north,7.9,No
2018/03/07,03:00,0.323,0.200,0.327,0.310,0.299,0.163,0.098,north,10.4,No
2018/03/07,03:10,0.322,0.200,0.327,0.309,0.300,0.163,0.098,north,9.2,No
2018/03/07,03:20,0.323,0.199,0.327,0.310,0.299,0.164,0.098,north,4.4,No
2018/03/07,03:30,0.322,0.200,0.326,0.310,0.300,0.164,0.099,north,4.4,No
2018/03/07,03:40,0.323,0.199,0.326,0.310,0.298,0.163,0.099,north,6.8,No
2018/03/07,03:50,0.324,0.199,0.327,0.309,0.298,0.164,0.098,north,8.8,No
2018/03/07,04:00,0.323,0.199,0.326,0.309,0.300,0.163,0.099,north,9.5,No
2018/03/07,04:10,0.322,0.198,0.326,0.310,0.299,0.164,0.099,north,7.7,No
2018/03/07,04:20,0.322,0.199,0.325,0.310,0.299,0.164,0.099,north-northwest,7.6,No
2018/03/07,04:30,0.323,0.199,0.327,0.309,0.300,0.165,0.098,north,7.8,No
2018/03/07,04:40,0.322,0.199,0.327,0.310,0.300,0.163,0.097,north-northwest,6.5,No
2018/03/07,04:50,0.323,0.198,0.327,0.311,0.299,0.163,0.099,north-northwest,6.5,No
2018/03/07,05:00,0.324,0.199,0.327,0.310,0.300,0.163,0.099,north-northwest,6.5,No
2018/03/07,05:10,0.322,0.200,0.326,0.309,0.300,0.163,0.097,north,6.8,No
2018/03/07,05:20,0.323,0.200,0.326,0.309,0.299,0.163,0.098,north,7.5,No
2018/03/07,05:30,0.323,0.199,0.326,0.310,0.298,0.164,0.098,north,8.6,No
2018/03/07,05:40,0.322,0.199,0.326,0.310,0.300,0.163,0.098,north,9.3,No
2018/03/07,05:50,0.322,0.199,0.325,0.310,0.299,0.164,0.098,north,9.8,No
2018/03/07,06:00,0.322,0.200,0.327,0.309,0.298,0.164,0.099,north,11.2,No
2018/03/07,06:10,0.324,0.199,0.326,0.310,0.299,0.163,0.098,north,11.8,No
2018/03/07,06:20,0.324,0.199,0.326,0.309,0.298,0.163,0.099,north,10.1,No
2018/03/07,06:30,0.323,0.199,0.327,0.310,0.299,0.164,0.098,north,8.6,No
2018/03/07,06:40,0.322,0.199,0.327,0.310,0.300,0.163,0.098,north,7.8,No
2018/03/07,06:50,0.322,0.199,0.326,0.309,0.298,0.164,0.098,north,9.5,No
2018/03/07,07:00,0.321,0.199,0.327,0.310,0.298,0.163,0.099,north,9.3,No
2018/03/07,07:10,0.322,0.199,0.324,0.309,0.299,0.164,0.099,north,6.9,No
2018/03/07,07:20,0.323,0.199,0.326,0.309,0.297,0.163,0.099,north,5.6,No
2018/03/07,07:30,0.324,0.199,0.325,0.308,0.299,0.163,0.098,north,5.7,No
2018/03/07,07:40,0.323,0.198,0.328,0.308,0.299,0.164,0.098,north,4.8,No
2018/03/07,07:50,0.323,0.199,0.327,0.309,0.299,0.164,0.098,north-northwest,5.5,No
2018/03/07,08:00,0.323,0.199,0.326,0.309,0.300,0.163,0.098,north,6.4,No
2018/03/07,08:10,0.324,0.199,0.327,0.307,0.298,0.164,0.098,north,5.1,No
2018/03/07,08:20,0.322,0.199,0.327,0.309,0.300,0.163,0.100,north,6.0,No
2018/03/07,08:30,0.322,0.198,0.326,0.308,0.299,0.163,0.098,north,5.1,No
2018/03/07,08:40,0.321,0.200,0.327,0.307,0.299,0.163,0.098,north,4.1,No
2018/03/07,08:50,0.322,0.198,0.326,0.308,0.298,0.163,0.098,north,4.0,No
2018/03/07,09:00,0.323,0.198,0.327,0.309,0.300,0.163,0.098,north-northeast,5.3,No
2018/03/07,09:10,0.323,0.198,0.326,0.309,0.299,0.164,0.098,northeast,5.2,No
2018/03/07,09:20,0.324,0.199,0.326,0.308,0.301,0.164,0.098,northeast,5.5,No
2018/03/07,09:30,0.320,0.199,0.327,0.309,0.300,0.164,0.098,northeast,5.7,No
2018/03/07,09:40,0.322,0.198,0.326,0.309,0.299,0.163,0.097,northeast,6.7,No
2018/03/07,09:50,0.322,0.199,0.327,0.309,0.300,0.163,0.098,northeast,6.7,No
2018/03/07,10:00,0.321,0.199,0.326,0.310,0.298,0.164,0.097,northeast,5.8,No
2018/03/07,10:10,0.322,0.199,0.327,0.308,0.299,0.164,0.097,northeast,5.7,No
2018/03/07,10:20,0.322,0.199,0.326,0.307,0.300,0.163,0.098,northeast,7.7,No
2018/03/07,10:30,0.321,0.199,0.326,0.309,0.299,0.163,0.098,northeast,5.9,No
2018/03/07,10:40,0.322,0.198,0.327,0.307,0.301,0.163,0.098,northeast,6.3,No
2018/03/07,10:50,0.323,0.199,0.327,0.309,0.301,0.163,0.098,northeast,5.2,No
2018/03/07,11:00,0.321,0.198,0.328,0.309,0.300,0.164,0.098,northeast,4.2,No
2018/03/07,11:10,0.321,0.201,0.326,0.309,0.300,0.163,0.098,northeast,3.9,No
2018/03/07,11:20,0.322,0.199,0.326,0.311,0.299,0.163,0.098,north-northeast,3.3,No
2018/03/07,11:30,0.322,0.199,0.325,0.308,0.301,0.163,0.099,northeast,5.0,No
2018/03/07,11:40,0.321,0.199,0.325,0.310,0.299,0.163,0.098,northeast,5.1,No
2018/03/07,11:50,0.323,0.200,0.325,0.309,0.300,0.164,0.098,north-northeast,5.3,No
2018/03/07,12:00,0.322,0.199,0.325,0.308,0.301,0.164,0.099,northeast,5.6,No
2018/03/07,12:10,0.322,0.199,0.326,0.312,0.300,0.164,0.098,north-northeast,3.5,No
2018/03/07,12:20,0.323,0.200,0.326,0.311,0.302,0.163,0.098,north-northeast,4.6,No
2018/03/07,12:30,0.322,0.199,0.325,0.310,0.301,0.163,0.098,northeast,5.5,No
2018/03/07,12:40,0.323,0.200,0.324,0.309,0.301,0.164,0.098,northeast,3.9,No
2018/03/07,12:50,0.324,0.200,0.326,0.310,0.302,0.163,0.098,northeast,3.1,No
2018/03/07,13:00,0.323,0.199,0.325,0.311,0.301,0.164,0.099,east-northeast,2.4,No
2018/03/07,13:10,0.321,0.199,0.327,0.310,0.301,0.163,0.099,east-northeast,2.3,No
2018/03/07,13:20,0.323,0.199,0.325,0.311,0.302,0.163,0.098,northeast,4.5,No
2018/03/07,13:30,0.323,0.199,0.325,0.312,0.301,0.164,0.099,north-northeast,4.7,No
2018/03/07,13:40,0.324,0.199,0.325,0.310,0.300,0.164,0.098,northeast,3.4,No
2018/03/07,13:50,0.324,0.199,0.324,0.311,0.301,0.164,0.099,northeast,4.0,No
2018/03/07,14:00,0.322,0.199,0.326,0.309,0.300,0.164,0.098,northeast,3.5,No
2018/03/07,14:10,0.322,0.199,0.327,0.311,0.301,0.164,0.098,northeast,2.5,No
2018/03/07,14:20,0.323,0.199,0.326,0.311,0.301,0.163,0.099,northeast,3.4,No
2018/03/07,14:30,0.323,0.200,0.327,0.310,0.301,0.163,0.099,east-northeast,2.7,No
2018/03/07,14:40,0.322,0.200,0.328,0.311,0.302,0.164,0.099,northeast,3.5,No
2018/03/07,14:50,0.324,0.200,0.326,0.312,0.301,0.164,0.098,east-northeast,2.4,No
2018/03/07,15:00,0.323,0.200,0.327,0.311,0.301,0.165,0.099,east,1.5,No
2018/03/07,15:10,0.325,0.200,0.329,0.311,0.302,0.164,0.099,east-northeast,2.4,No
2018/03/07,15:20,0.324,0.199,0.329,0.313,0.301,0.164,0.098,east,0.8,No
2018/03/07,15:30,0.325,0.200,0.327,0.314,0.301,0.163,0.098,east-northeast,2.3,No
2018/03/07,15:40,0.326,0.200,0.328,0.313,0.301,0.165,0.099,east-northeast,2.0,No
2018/03/07,15:50,0.324,0.201,0.329,0.312,0.301,0.164,0.099,east,1.3,No
2018/03/07,16:00,0.323,0.200,0.327,0.311,0.301,0.164,0.099,north-northeast,1.3,No
2018/03/07,16:10,0.325,0.199,0.326,0.312,0.300,0.165,0.099,northeast,2.1,No
2018/03/07,16:20,0.323,0.199,0.327,0.311,0.301,0.165,0.099,northeast,2.0,No
2018/03/07,16:30,0.323,0.200,0.328,0.311,0.301,0.164,0.099,-,CALM,No
2018/03/07,16:40,0.323,0.199,0.328,0.311,0.300,0.164,0.098,north-northeast,1.4,No
2018/03/07,16:50,0.326,0.200,0.327,0.311,0.301,0.164,0.098,northeast,1.8,No
2018/03/07,17:00,0.324,0.199,0.328,0.312,0.299,0.165,0.098,north-northwest,0.9,No
2018/03/07,17:10,0.323,0.201,0.327,0.312,0.301,0.164,0.099,north,1.0,No
2018/03/07,17:20,0.323,0.201,0.329,0.310,0.300,0.165,0.098,north-northeast,1.3,No
2018/03/07,17:30,0.324,0.200,0.327,0.312,0.300,0.164,0.098,north-northeast,1.3,No
2018/03/07,17:40,0.324,0.200,0.327,0.312,0.300,0.164,0.099,north-northeast,0.9,No
2018/03/07,17:50,0.325,0.201,0.327,0.312,0.300,0.164,0.099,north,0.8,No
2018/03/07,18:00,0.324,0.201,0.327,0.311,0.300,0.164,0.098,-,CALM,No
2018/03/07,18:10,0.324,0.200,0.327,0.310,0.301,0.164,0.099,north-northwest,0.9,No
2018/03/07,18:20,0.324,0.200,0.327,0.311,0.301,0.164,0.099,north,1.5,No
2018/03/07,18:30,0.323,0.200,0.327,0.311,0.300,0.164,0.099,north,1.8,No
2018/03/07,18:40,0.324,0.200,0.327,0.312,0.300,0.164,0.098,north-northwest,1.8,No
2018/03/07,18:50,0.323,0.200,0.328,0.312,0.299,0.164,0.099,northwest,1.7,No
2018/03/07,19:00,0.324,0.201,0.327,0.312,0.298,0.165,0.099,northwest,1.9,No
2018/03/07,19:10,0.325,0.199,0.330,0.312,0.301,0.164,0.099,northwest,1.7,No
2018/03/07,19:20,0.324,0.201,0.328,0.314,0.300,0.164,0.099,northwest,1.2,No
2018/03/07,19:30,0.324,0.200,0.327,0.312,0.299,0.164,0.099,northwest,1.7,No
2018/03/07,19:40,0.323,0.200,0.328,0.312,0.301,0.164,0.099,northwest,1.5,No
2018/03/07,19:50,0.323,0.200,0.328,0.313,0.300,0.164,0.099,northwest,0.9,No
2018/03/07,20:00,0.326,0.200,0.328,0.312,0.302,0.163,0.099,west-northwest,0.9,No
2018/03/07,20:10,0.326,0.201,0.328,0.312,0.300,0.165,0.099,west,0.9,No
2018/03/07,20:20,0.323,0.201,0.329,0.312,0.300,0.164,0.099,west-southwest,1.8,No
2018/03/07,20:30,0.324,0.200,0.327,0.312,0.300,0.164,0.098,west-southwest,1.7,No
2018/03/07,20:40,0.323,0.200,0.329,0.311,0.299,0.164,0.099,west-southwest,1.1,No
2018/03/07,20:50,0.325,0.200,0.327,0.311,0.301,0.165,0.099,west-southwest,1.2,No
2018/03/07,21:00,0.325,0.200,0.328,0.312,0.299,0.165,0.098,west,1.0,No
2018/03/07,21:10,0.324,0.201,0.327,0.312,0.301,0.164,0.098,west,0.9,No
2018/03/07,21:20,0.325,0.200,0.327,0.314,0.301,0.165,0.099,west-northwest,0.7,No
2018/03/07,21:30,0.325,0.201,0.329,0.312,0.300,0.164,0.099,west,1.6,No
2018/03/07,21:40,0.325,0.200,0.329,0.312,0.299,0.164,0.099,west,1.5,No
2018/03/07,21:50,0.324,0.200,0.329,0.312,0.300,0.164,0.098,west,2.0,No
2018/03/07,22:00,0.324,0.200,0.328,0.312,0.299,0.165,0.098,west,1.3,No
2018/03/07,22:10,0.324,0.201,0.329,0.312,0.301,0.165,0.098,west-northwest,1.0,No
2018/03/07,22:20,0.325,0.200,0.328,0.312,0.301,0.164,0.099,northwest,1.1,No
2018/03/07,22:30,0.325,0.200,0.328,0.313,0.300,0.164,0.099,north-northwest,1.6,No
2018/03/07,22:40,0.325,0.200,0.328,0.312,0.299,0.164,0.099,northwest,1.2,No
2018/03/07,22:50,0.326,0.201,0.327,0.311,0.300,0.164,0.098,west-northwest,1.3,No
2018/03/07,23:00,0.323,0.200,0.328,0.311,0.301,0.164,0.098,west,1.2,No
2018/03/07,23:10,0.323,0.200,0.326,0.311,0.301,0.164,0.100,west-northwest,1.0,No
2018/03/07,23:20,0.324,0.200,0.328,0.312,0.301,0.165,0.098,west-northwest,0.9,No
2018/03/07,23:30,0.325,0.200,0.330,0.311,0.300,0.163,0.099,-,CALM,No
2018/03/07,23:40,0.326,0.201,0.327,0.312,0.300,0.165,0.098,northwest,0.8,No
2018/03/07,23:50,0.324,0.200,0.328,0.311,0.301,0.166,0.098,west-northwest,0.8,No
